10P/Tempel 2 (2010)

Japanese version
Home page
Total 6,336 html files since Dec. 4, 1995
Updated on April 4, 2008

---------------------------------------------------------------------

* Profile

* Orbital Elements

The following orbital elements are taken from MPC 59600:

Epoch 2010 July 23.0 TT = JDT 2455400.5
T 2010 July 4.9073 TT                                   MPC
q   1.422698             (2000.0)            P               Q
n   0.1833760      Peri.  195.6608      +0.6829400      +0.7068662
a   3.068370       Node   117.8251      -0.6458430      +0.7021231
e   0.536334       Incl.   12.0223      -0.3412912      +0.0858093
P   5.37
From 1028 observations 1946-2007, mean residual 0".8.  Nongravitational
     parameters A1 = +0.03, A2 = +0.0014.

* Finding Charts

* Magnitudes Graph

        H = 13.6  G = 0.15              [    ,-170]  (             - 2010 Jan. 15)
        m1 =  4.6 + 5 log d + 35 log r  [-170,   0]  (2010 Jan. 15 - 2010 July  4)
        m1 =  7.2 + 5 log d + 18 log r  [   0, 425]  (2010 July  4 - 2011 Sept. 2)
        H = 13.6  G = 0.15              [ 425,    ]  (2011 Sept. 2 -             )

---------------------------------------------------------------------

The orbital elements are published at the MPC Ephemerides and Orbital Elements.
The charts are made with StellaNavigator Ver.2.0 for Windows (AstroArts / ASCII).
The magnitudes graphs are made with Comet for Windows.

---------------------------------------------------------------------

Copyright(C) 1995-2008 Seiichi Yoshida (comet@aerith.net). All rights reserved.